CZ-3B DEB, 39335

Orbit data source: Space-Track

CZ-3B DEB, 39335 is space debris in HEO originally from a launch on Sat, 04 Sep 2010 UTC launched from the Xichang Space Center, China (XSC). Debris objects in space refer to the collection of defunct objects orbiting the Earth. Examples of debris include non-operational satellites, rocket bodies, and fragments generated from explosions, collisions, or faulty payload assembly.

Loading next visibility...
Identifier
39335, 2010-042G
Orbit
HEO
Country
Flag of CNCN / PRC
Related business
Manufacturer
CALT
Mission
Spacecraft
Bus & Motor
Unknown
Mass
Unknown
Launch date (UTC)
2010-09-04 (15 years ago)
Launch vehicle
Unknown
Launch site
Xichang Space Center, China (XSC)
Object type
Payload
Rocket body
Debris
Shape & HBR
Unknown shape, 0.2 m
Radar Cross Section
Medium (>0.1 m² and <1 m²)

Expand to show TLE details & history
Last TLE update: 3 days ago

TLE from 3 days ago
0 CZ-3B DEB
1 39335U 10042G   25284.96088089  .00000229  00000-0 -32434-2 0  9991
2 39335  27.6805 103.9731 7336272 212.3696 355.4754  1.97549581 79149
Epoch: 2025-10-11T23:03Z
TLE epoch observation values (Epoch: 2025-10-11T23:03:40.108Z)
Latitude
4.12643°
Longitude
-90.66405°
Altitude
1,635.027 km
Speed
9.199 km/s
True Right ascension
18h 24m 09s
True Declination
4° 06' 16"
Sunlit
Object was in daylight at epoch
Visualization orbit readout
Latitude
Unknown
Longitude
Unknown
Altitude
Unknown
Speed
Unknown
Apparent Right ascension
Unknown
Apparent Declination
Unknown
Sunlit
N/A
Visualization observer readout
Local Sidereal Time
10:00:25
Azimuth
Unknown
Elevation
Unknown
Doppler factor
Unknown
Orbital elements
Apogee altitude
40,140.932 km
Perigee altitude
769.544 km
Semi-major axis
26,833.375 km
Eccentricity
0.73363
Inclination
27.6805°
RAAN
103.9731°
Arg. of periapsis
212.3696°
True anomaly
319.6891°
Mean anomaly
355.4754°
Eccentric anomaly
343.62543°
Mean motion
0.49378 °/min
Orbital period
729.08 mins
BSTAR
-0.0032434
Loading maneuver chart data...
Computing Atmospheric mass density...
Loading historical data...
Loading historical data...
Loading historical data...
Loading historical data...
Loading historical data...
Loading historical data...
Loading historical data...

Documentation

Showing up to 5 results
|